Date String (YYYY-MM-DD hh:mm:ss) UTC,Instrument flags,Ambient pressure (hPa),Sample flow (lpm),Bypass flow (lpm),Sample temperature (°C),Ambient temperature (°C),ASC tube jacket temperature (°C),LED temperature (°C),Box temperature (°C),Sample RH (%),Span deviation,Mass concentration (μg/m³),Mass concentration (μg/m³),Mass concentration (μg/m³)
DateTimeUTC,F1_M11,P_M11,Q1_M11,Q2_M11,T1_M11,T2_M11,T3_M11,T4_M11,T5_M11,U1_M11,ZSPAN_M11,X0_M11,X2_M11,X1_M11
2022-02-19 16:00:00,,0827.7,4.99,0.00,22.8,22.1,00.0,31.7,24.6,11.1,0000.0,0006.31,0002.20,0001.81
2022-02-19 16:01:00,,0827.7,5.01,0.00,22.8,22.1,00.0,31.7,24.5,11.3,0000.0,0007.02,0002.16,0001.77
2022-02-19 16:02:00,,0827.7,5.00,0.00,22.8,22.1,00.0,31.7,24.5,11.0,0000.0,0006.74,0002.16,0001.74
2022-02-19 16:03:00,,0827.7,5.02,0.00,22.8,22.1,00.0,31.7,24.6,10.6,0000.0,0005.68,0002.20,0001.73
2022-02-19 16:04:00,,0827.7,4.99,0.00,22.8,22.1,00.0,31.7,24.6,10.7,0000.0,0005.51,0002.19,0001.71
2022-02-19 16:05:00,,0827.7,5.01,0.00,22.8,22.1,00.0,31.7,24.6,10.6,0000.0,0005.52,0002.16,0001.69
2022-02-19 16:06:00,,0827.7,5.01,0.00,22.8,22.1,00.0,31.7,24.6,11.1,0000.0,0005.78,0002.16,0001.69
2022-02-19 16:07:00,,0827.7,4.99,0.00,22.8,22.2,00.0,31.7,24.6,11.3,0000.0,0006.72,0002.21,0001.69
2022-02-19 16:08:00,,0827.6,5.00,0.00,22.8,22.2,00.0,31.7,24.7,11.1,0000.0,0006.46,0002.18,0001.67
2022-02-19 16:09:00,,0827.5,5.00,0.00,22.9,22.2,00.0,31.8,24.7,11.0,0000.0,0005.87,0002.18,0001.66
2022-02-19 16:10:00,,0827.5,5.00,0.00,22.9,22.2,00.0,31.8,24.7,11.4,0000.0,0006.10,0002.20,0001.67
2022-02-19 16:11:00,,0827.5,5.00,0.00,22.9,22.2,00.0,31.8,24.7,11.4,0000.0,0006.22,0002.25,0001.69
2022-02-19 16:12:00,,0827.6,4.99,0.00,22.9,22.2,00.0,31.8,24.7,11.7,0000.0,0005.91,0002.28,0001.70
2022-02-19 16:13:00,,0827.6,5.01,0.00,22.9,22.2,00.0,31.8,24.7,11.0,0000.0,0006.01,0002.27,0001.70
2022-02-19 16:14:00,,0827.5,4.99,0.00,22.9,22.2,00.0,31.8,24.7,10.8,0000.0,0005.93,0002.23,0001.70
2022-02-19 16:15:00,,0827.5,4.99,0.00,22.9,22.2,00.0,31.8,24.7,10.8,0000.0,0005.88,0002.20,0001.68
2022-02-19 16:16:00,,0827.4,5.01,0.00,22.9,22.3,00.0,31.8,24.7,10.8,0000.0,0005.77,0002.18,0001.66
2022-02-19 16:17:00,,0827.4,5.00,0.00,22.9,22.3,00.0,31.8,24.8,10.5,0000.0,0005.13,0002.15,0001.64
2022-02-19 16:18:00,,0827.4,4.99,0.00,23.0,22.3,00.0,31.8,24.8,10.4,0000.0,0003.85,0002.09,0001.61
2022-02-19 16:19:00,,0827.4,5.00,0.00,23.0,22.3,00.0,31.9,24.8,10.3,0000.0,0003.78,0002.06,0001.59
2022-02-19 16:20:00,,0827.4,4.99,0.00,23.0,22.4,00.0,31.9,24.9,10.1,0000.0,0003.64,0002.00,0001.57
2022-02-19 16:21:00,,0827.4,4.98,0.00,23.0,22.4,00.0,31.9,24.9,10.1,0000.0,0003.46,0001.99,0001.56
2022-02-19 16:22:00,,0827.4,4.99,0.00,23.0,22.4,00.0,31.9,24.9,10.3,0000.0,0003.45,0001.95,0001.52
2022-02-19 16:23:00,,0827.3,4.99,0.00,23.0,22.4,00.0,31.9,24.9,10.3,0000.0,0003.29,0001.89,0001.50
2022-02-19 16:24:00,,0827.4,5.00,0.00,23.0,22.4,00.0,31.9,24.9,10.5,0000.0,0002.85,0001.86,0001.49
2022-02-19 16:25:00,,0827.4,5.01,0.00,23.1,22.4,00.0,31.9,24.9,10.7,0000.0,0002.97,0001.89,0001.50
2022-02-19 16:26:00,,0827.4,5.00,0.00,23.1,22.4,00.0,32.0,24.9,10.6,0000.0,0003.12,0001.90,0001.52
2022-02-19 16:27:00,,0827.4,4.99,0.00,23.1,22.5,00.0,32.0,24.9,10.3,0000.0,0003.13,0001.90,0001.54
2022-02-19 16:28:00,,0827.3,5.00,0.00,23.1,22.5,00.0,32.0,25.0,10.3,0000.0,0003.28,0001.95,0001.54
2022-02-19 16:29:00,,0827.2,5.00,0.00,23.2,22.5,00.0,32.0,25.0,10.0,0000.0,0003.54,0001.97,0001.55
2022-02-19 16:30:00,,0827.3,5.00,0.00,23.2,22.5,00.0,32.0,25.0,10.1,0000.0,0004.15,0001.98,0001.56
2022-02-19 16:31:00,,0827.2,5.01,0.00,23.2,22.6,00.0,32.0,25.1,10.0,0000.0,0004.08,0001.97,0001.57
2022-02-19 16:32:00,,0827.3,5.01,0.00,23.2,22.6,00.0,32.1,25.1,10.0,0000.0,0004.01,0001.95,0001.57
2022-02-19 16:33:00,,0827.3,5.00,0.00,23.3,22.6,00.0,32.1,25.1,10.4,0000.0,0004.02,0001.97,0001.58
2022-02-19 16:34:00,,0827.3,4.99,0.00,23.3,22.6,00.0,32.1,25.2,10.8,0000.0,0004.00,0001.96,0001.58
2022-02-19 16:35:00,,0827.4,5.00,0.00,23.3,22.6,00.0,32.1,25.2,10.8,0000.0,0004.98,0001.99,0001.60
2022-02-19 16:36:00,,0827.3,5.01,0.00,23.3,22.6,00.0,32.1,25.2,10.7,0000.0,0005.13,0002.02,0001.62
2022-02-19 16:37:00,,0827.3,5.00,0.00,23.3,22.6,00.0,32.2,25.2,10.8,0000.0,0005.00,0002.04,0001.62
2022-02-19 16:38:00,,0827.6,4.99,0.00,23.3,22.6,00.0,32.2,25.2,10.7,0000.0,0005.12,0002.06,0001.63
2022-02-19 16:39:00,,0827.6,5.02,0.00,23.4,22.6,00.0,32.2,25.2,10.5,0000.0,0005.09,0002.06,0001.66
2022-02-19 16:40:00,,0827.2,5.00,0.00,23.4,22.7,00.0,32.2,25.2,10.6,0000.0,0004.90,0002.09,0001.70
2022-02-19 16:41:00,,0827.2,4.99,0.00,23.4,22.7,00.0,32.2,25.2,10.5,0000.0,0004.38,0002.13,0001.73
2022-02-19 16:42:00,,0827.6,5.00,0.00,23.4,22.7,00.0,32.2,25.2,10.7,0000.0,0004.50,0002.18,0001.75
2022-02-19 16:43:00,,0827.4,5.01,0.00,23.4,22.7,00.0,32.2,25.3,10.8,0000.0,0004.65,0002.23,0001.77
2022-02-19 16:44:00,,0827.2,5.01,0.00,23.4,22.7,00.0,32.3,25.3,10.6,0000.0,0004.74,0002.23,0001.79
2022-02-19 16:45:00,,0827.3,4.99,0.00,23.4,22.7,00.0,32.3,25.3,11.0,0000.0,0005.75,0002.23,0001.80
2022-02-19 16:46:00,,0827.4,4.99,0.00,23.4,22.7,00.0,32.3,25.2,10.6,0000.0,0005.12,0002.26,0001.80
2022-02-19 16:47:00,,0827.7,5.00,0.00,23.4,22.7,00.0,32.3,25.2,10.4,0000.0,0005.26,0002.30,0001.80
2022-02-19 16:48:00,,0827.3,5.01,0.00,23.5,22.7,00.0,32.3,25.3,10.4,0000.0,0005.45,0002.29,0001.80
2022-02-19 16:49:00,,0827.1,5.00,0.00,23.5,22.7,00.0,32.3,25.3,10.7,0000.0,0005.51,0002.32,0001.81
2022-02-19 16:50:00,,0827.1,4.99,0.00,23.5,22.7,00.0,32.4,25.3,10.7,0000.0,0005.50,0002.35,0001.82
2022-02-19 16:51:00,,0827.1,4.99,0.00,23.5,22.7,00.0,32.4,25.3,10.5,0000.0,0005.60,0002.38,0001.83
2022-02-19 16:52:00,,0827.1,5.00,0.00,23.5,22.8,00.0,32.4,25.3,10.6,0000.0,0005.86,0002.42,0001.84
2022-02-19 16:53:00,,0827.0,5.01,0.00,23.5,22.8,00.0,32.4,25.3,10.5,0000.0,0005.78,0002.40,0001.83
2022-02-19 16:54:00,,0827.0,5.00,0.00,23.5,22.8,00.0,32.4,25.2,10.1,0000.0,0005.74,0002.40,0001.84
2022-02-19 16:55:00,,0827.0,4.99,0.00,23.5,22.8,00.0,32.4,25.2,10.0,0000.0,0005.63,0002.37,0001.83
2022-02-19 16:56:00,,0827.0,4.99,0.00,23.5,22.7,00.0,32.4,25.2,10.1,0000.0,0004.78,0002.37,0001.83
2022-02-19 16:57:00,,0827.0,5.01,0.00,23.4,22.7,00.0,32.4,25.2,10.1,0000.0,0004.90,0002.35,0001.82
2022-02-19 16:58:00,,0826.9,4.99,0.00,23.4,22.7,00.0,32.4,25.2,10.1,0000.0,0004.68,0002.31,0001.82
2022-02-19 16:59:00,,0826.9,5.02,0.00,23.4,22.7,00.0,32.4,25.2,10.4,0000.0,0004.43,0002.29,0001.83
